sat.trackr.live / text

‹ back to catalog

STARLINK-3127

NORAD 49450 · 2021-104AU

PAYLOAD ACTIVE UNKNOWN

§ Identity

Operator
Country
US
Launch date
2021-11-13
Launch site
AFETR
Launch vehicle
Mass (kg)
RCS (m²)

Purposes: comms

External: N2YO · Heavens-Above · Gunter

§ Orbital elements

Epoch: 2026-05-24T16:07:25.367232Z

Period
95.44 min
Inclination
53.2153°
Eccentricity
0.0001257
Mean motion
15.08836104 rev/d
Perigee alt
538.9 km
Apogee alt
540.6 km
Semi-major
6,917.9 km
B*
1.7663e-4
RAAN
238.0603°
Arg perigee
85.4482°
Mean anomaly
274.6654°
Rev number
25,050

§ Raw data

STARLINK-31271 49450U 21104AU  26144.67182138  .00002524  00000+0  17663-3 0  99912 49450  53.2153 238.0603 0001257  85.4482 274.6654 15.08836104250503

JSON: /api/v1/satellites/49450 · /tle

For live sub-satellite position, see the globe view (requires WebGL).

§ Visibility from observer

Set your observer location to see the next 7 days of passes ≥ 10°. The values pass through the URL so the page stays shareable.

No JS? Fill the form by hand. The geolocation button needs JavaScript.